QPF
0.00 0.00 0.00 0.00 0.00 0.00 0.00 0.00 0.00 0.00 0.00 0.00 0.00 0.01 0.01 0.00 0.00 0.01 0.01 0.01 0.01 0.01 0.02 0.03 0.03 0.04 0.07 0.08 0.07 0.07 0.06 0.06 0.04 0.03 0.03 0.04 0.09 0.15 0.18 0.19 0.21 0.23 0.20
0.00 0.00 0.00 0.00 0.00 0.00 0.00 0.00 0.00 0.00 0.00 0.00 0.00 0.00 0.00 0.00 0.00 0.00 0.00 0.01 0.01 0.01 0.01 0.02 0.03 0.03 0.05 0.08 0.08 0.07 0.06 0.06 0.05 0.03 0.04 0.03 0.04 0.09 0.15 0.20 0.22 0.21 0.21
0.00 0.00 0.00 0.00 0.00 0.00 0.00 0.00 0.00 0.00 0.00 0.00 0.00 0.00 0.00 0.00 0.00 0.00 0.00 0.01 0.01 0.01 0.01 0.01 0.02 0.03 0.03 0.04 0.05 0.05 0.05 0.06 0.07 0.04 0.03 0.03 0.04 0.05 0.09 0.16 0.20 0.21 0.19
0.00 0.00 0.00 0.00 0.00 0.00 0.00 0.00 0.00 0.00 0.00 0.00 0.00 0.00 0.00 0.00 0.00 0.00 0.00 0.00 0.01 0.01 0.01 0.01 0.02 0.02 0.03 0.03 0.04 0.05 0.05 0.07 0.07 0.05 0.03 0.04 0.05 0.05 0.06 0.08 0.13 0.17 0.19
0.00 0.00 0.00 0.00 0.00 0.00 0.00 0.00 0.00 0.00 0.00 0.00 0.00 0.00 0.00 0.00 0.00 0.00 0.00 0.00 0.00 0.00 0.00 0.01 0.01 0.01 0.02 0.03 0.03 0.04 0.05 0.06 0.07 0.06 0.04 0.04 0.04 0.05 0.05 0.04 0.06 0.11 0.18
0.00 0.00 0.00 0.00 0.00 0.00 0.00 0.00 0.00 0.00 0.00 0.00 0.00 0.00 0.00 0.00 0.00 0.00 0.00 0.00 0.00 0.00 0.00 0.00 0.01 0.01 0.02 0.02 0.03 0.04 0.05 0.05 0.05 0.05 0.05 0.04 0.04 0.05 0.07 0.07 0.07 0.08 0.11
0.00 0.00 0.00 0.00 0.00 0.00 0.00 0.00 0.00 0.00 0.00 0.00 0.00 0.00 0.00 0.00 0.00 0.00 0.00 0.00 0.00 0.00 0.00 0.00 0.00 0.01 0.01 0.01 0.02 0.03 0.05 0.05 0.05 0.05 0.04 0.03 0.03 0.05 0.07 0.08 0.08 0.07 0.06
0.00 0.00 0.00 0.00 0.00 0.00 0.00 0.00 0.00 0.00 0.00 0.00 0.00 0.00 0.00 0.00 0.00 0.00 0.00 0.00 0.01 0.01 0.00 0.00 0.00 0.01 0.01 0.01 0.02 0.02 0.02 0.03 0.04 0.03 0.03 0.04 0.05 0.07 0.09 0.09 0.09 0.10 0.11
0.00 0.00 0.00 0.00 0.00 0.00 0.00 0.00 0.00 0.00 0.00 0.00 0.00 0.00 0.00 0.00 0.00 0.00 0.00 0.00 0.01 0.01 0.00 0.00 0.01 0.01 0.01 0.01 0.01 0.02 0.03 0.03 0.04 0.04 0.04 0.05 0.06 0.07 0.09 0.09 0.08 0.09 0.10
0.00 0.00 0.00 0.00 0.00 0.00 0.00 0.00 0.00 0.00 0.00 0.00 0.00 0.00 0.00 0.00 0.00 0.00 0.00 0.00 0.01 0.01 0.00 0.00 0.01 0.01 0.01 0.01 0.02 0.02 0.03 0.04 0.04 0.04 0.05 0.06 0.06 0.07 0.07 0.07 0.07 0.07 0.09
0.00 0.00 0.00 0.00 0.00 0.00 0.00 0.00 0.00 0.00 0.00 0.00 0.00 0.00 0.00 0.00 0.00 0.00 0.00 0.00 0.00 0.00 0.00 0.00 0.00 0.00 0.01 0.01 0.02 0.03 0.05 0.05 0.05 0.06 0.06 0.06 0.06 0.05 0.05 0.06 0.08 0.10 0.09
0.00 0.00 0.00 0.00 0.00 0.00 0.00 0.00 0.00 0.00 0.00 0.00 0.00 0.00 0.00 0.00 0.00 0.00 0.00 0.00 0.00 0.00 0.00 0.01 0.01 0.01 0.00 0.01 0.01 0.02 0.04 0.03 0.03 0.04 0.07 0.09 0.07 0.06 0.05 0.06 0.09 0.13 0.12
0.00 0.00 0.00 0.00 0.00 0.00 0.00 0.00 0.00 0.00 0.00 0.00 0.00 0.00 0.00 0.00 0.00 0.00 0.00 0.00 0.00 0.00 0.00 0.00 0.01 0.01 0.01 0.00 0.01 0.02 0.03 0.04 0.04 0.05 0.07 0.08 0.09 0.10 0.08 0.06 0.09 0.11 0.13
0.00 0.00 0.00 0.00 0.00 0.00 0.00 0.00 0.00 0.00 0.00 0.00 0.00 0.00 0.00 0.00 0.00 0.00 0.00 0.00 0.00 0.00 0.00 0.00 0.00 0.00 0.00 0.00 0.00 0.01 0.03 0.04 0.04 0.06 0.09 0.09 0.10 0.12 0.12 0.09 0.09 0.09 0.11
0.00 0.00 0.00 0.00 0.00 0.00 0.00 0.00 0.00 0.00 0.00 0.00 0.00 0.00 0.00 0.00 0.00 0.00 0.00 0.00 0.00 0.00 0.00 0.00 0.00 0.00 0.00 0.00 0.01 0.02 0.02 0.02 0.03 0.04 0.06 0.09 0.11 0.10 0.12 0.10 0.10 0.09 0.08
0.00 0.00 0.00 0.00 0.00 0.00 0.00 0.00 0.00 0.00 0.00 0.00 0.00 0.00 0.00 0.00 0.00 0.00 0.00 0.00 0.00 0.00 0.00 0.00 0.00 0.00 0.00 0.00 0.01 0.01 0.02 0.03 0.03 0.04 0.06 0.08 0.10 0.12 0.12 0.11 0.11 0.12 0.11
0.00 0.00 0.00 0.00 0.00 0.00 0.00 0.00 0.00 0.00 0.00 0.00 0.00 0.00 0.00 0.00 0.00 0.00 0.00 0.00 0.00 0.00 0.00 0.00 0.00 0.00 0.00 0.00 0.00 0.01 0.01 0.02 0.02 0.03 0.04 0.06 0.09 0.11 0.12 0.12 0.11 0.12 0.12
0.00 0.00 0.00 0.00 0.00 0.00 0.00 0.00 0.00 0.00 0.00 0.00 0.00 0.00 0.00 0.00 0.00 0.00 0.00 0.00 0.00 0.00 0.00 0.00 0.00 0.00 0.00 0.00 0.01 0.01 0.01 0.01 0.01 0.02 0.02 0.03 0.05 0.08 0.11 0.12 0.14 0.14 0.12
0.00 0.00 0.00 0.00 0.00 0.00 0.00 0.00 0.00 0.00 0.00 0.00 0.00 0.00 0.00 0.00 0.00 0.00 0.00 0.00 0.00 0.00 0.00 0.00 0.00 0.00 0.00 0.00 0.00 0.01 0.01 0.01 0.01 0.02 0.02 0.02 0.03 0.04 0.05 0.07 0.11 0.15 0.15
0.00 0.00 0.00 0.00 0.00 0.00 0.00 0.00 0.00 0.00 0.00 0.00 0.00 0.00 0.00 0.00 0.00 0.00 0.00 0.00 0.00 0.00 0.00 0.00 0.00 0.00 0.00 0.00 0.00 0.00 0.01 0.02 0.02 0.02 0.03 0.04 0.04 0.04 0.04 0.05 0.08 0.10 0.11
0.00 0.00 0.00 0.00 0.00 0.00 0.00 0.00 0.00 0.00 0.00 0.00 0.00 0.00 0.00 0.00 0.00 0.00 0.00 0.00 0.00 0.00 0.00 0.00 0.00 0.00 0.00 0.00 0.01 0.01 0.01 0.01 0.02 0.02 0.03 0.04 0.04 0.04 0.05 0.05 0.06 0.09 0.10
0.00 0.00 0.00 0.00 0.00 0.00 0.00 0.00 0.00 0.00 0.00 0.00 0.00 0.00 0.00 0.00 0.00 0.00 0.00 0.00 0.01 0.01 0.01 0.01 0.01 0.01 0.01 0.01 0.02 0.02 0.02 0.02 0.02 0.02 0.03 0.04 0.04 0.05 0.05 0.05 0.05 0.07 0.08
0.00 0.00 0.00 0.00 0.00 0.00 0.00 0.00 0.00 0.00 0.00 0.00 0.00 0.00 0.00 0.00 0.00 0.00 0.00 0.00 0.01 0.01 0.01 0.01 0.01 0.02 0.02 0.02 0.03 0.03 0.03 0.02 0.02 0.03 0.04 0.05 0.06 0.06 0.06 0.05 0.04 0.04 0.05
0.00 0.00 0.00 0.00 0.00 0.00 0.00 0.00 0.00 0.00 0.00 0.00 0.00 0.00 0.00 0.00 0.00 0.00 0.00 0.00 0.00 0.01 0.01 0.01 0.02 0.02 0.03 0.03 0.04 0.04 0.04 0.04 0.04 0.04 0.05 0.06 0.06 0.07 0.08 0.07 0.06 0.05 0.05
0.00 0.00 0.00 0.00 0.00 0.00 0.00 0.00 0.00 0.00 0.00 0.00 0.00 0.00 0.00 0.00 0.00 0.00 0.00 0.00 0.00 0.00 0.00 0.01 0.01 0.02 0.02 0.03 0.04 0.04 0.05 0.05 0.05 0.04 0.05 0.06 0.07 0.08 0.10 0.10 0.08 0.07 0.07
0.00 0.00 0.00 0.00 0.00 0.00 0.00 0.00 0.00 0.00 0.00 0.00 0.00 0.00 0.00 0.00 0.00 0.00 0.00 0.00 0.00 0.00 0.00 0.00 0.00 0.01 0.01 0.02 0.03 0.05 0.05 0.04 0.04 0.04 0.05 0.06 0.07 0.08 0.10 0.12 0.11 0.10 0.09
MSLP
1013.27 1013.42 1013.60 1013.77 1013.89 1013.95 1013.93 1013.85 1013.74 1013.60 1013.47 1013.35 1013.25 1013.17 1013.08 1012.97 1012.84 1012.67 1012.47 1012.25 1012.02 1011.79 1011.58 1011.38 1011.20 1011.03 1010.86 1010.69 1010.51 1010.32 1010.13 1009.94 1009.76 1009.59 1009.45 1009.33 1009.24 1009.17 1009.15 1009.17 1009.24 1009.39 1009.62
1013.16 1013.26 1013.39 1013.51 1013.60 1013.65 1013.64 1013.58 1013.50 1013.41 1013.31 1013.23 1013.14 1013.06 1012.96 1012.83 1012.67 1012.48 1012.25 1012.01 1011.77 1011.53 1011.30 1011.09 1010.89 1010.70 1010.51 1010.32 1010.12 1009.92 1009.72 1009.53 1009.36 1009.22 1009.10 1009.01 1008.94 1008.90 1008.89 1008.92 1009.01 1009.14 1009.35
1013.00 1013.08 1013.17 1013.26 1013.32 1013.34 1013.34 1013.30 1013.25 1013.19 1013.13 1013.07 1013.00 1012.92 1012.80 1012.65 1012.46 1012.24 1011.99 1011.74 1011.48 1011.24 1011.01 1010.80 1010.60 1010.40 1010.20 1009.99 1009.77 1009.56 1009.35 1009.16 1008.99 1008.86 1008.76 1008.69 1008.66 1008.66 1008.68 1008.74 1008.83 1008.97 1009.17
1012.77 1012.84 1012.91 1012.97 1013.01 1013.02 1013.01 1013.00 1012.97 1012.95 1012.92 1012.88 1012.82 1012.73 1012.60 1012.42 1012.20 1011.95 1011.69 1011.42 1011.16 1010.92 1010.70 1010.49 1010.30 1010.10 1009.89 1009.67 1009.44 1009.21 1008.98 1008.78 1008.61 1008.48 1008.40 1008.36 1008.36 1008.40 1008.46 1008.55 1008.67 1008.82 1009.00
1012.44 1012.52 1012.59 1012.63 1012.65 1012.66 1012.65 1012.65 1012.65 1012.65 1012.65 1012.63 1012.57 1012.48 1012.33 1012.12 1011.88 1011.61 1011.32 1011.04 1010.79 1010.55 1010.35 1010.15 1009.97 1009.77 1009.56 1009.33 1009.08 1008.82 1008.58 1008.36 1008.18 1008.05 1007.99 1007.97 1008.01 1008.08 1008.18 1008.30 1008.44 1008.60 1008.78
1012.04 1012.14 1012.21 1012.24 1012.25 1012.25 1012.24 1012.25 1012.27 1012.29 1012.31 1012.30 1012.25 1012.14 1011.98 1011.76 1011.50 1011.21 1010.92 1010.64 1010.38 1010.16 1009.97 1009.79 1009.61 1009.42 1009.20 1008.95 1008.68 1008.39 1008.12 1007.88 1007.69 1007.56 1007.50 1007.51 1007.57 1007.67 1007.80 1007.95 1008.11 1008.28 1008.45
1011.62 1011.73 1011.79 1011.81 1011.81 1011.80 1011.79 1011.80 1011.82 1011.85 1011.88 1011.88 1011.82 1011.72 1011.55 1011.32 1011.05 1010.76 1010.47 1010.20 1009.96 1009.76 1009.58 1009.41 1009.24 1009.04 1008.81 1008.54 1008.24 1007.93 1007.63 1007.37 1007.16 1007.02 1006.97 1006.98 1007.06 1007.18 1007.33 1007.49 1007.65 1007.81 1007.97
1011.24 1011.34 1011.39 1011.39 1011.36 1011.33 1011.30 1011.30 1011.31 1011.34 1011.36 1011.35 1011.30 1011.19 1011.02 1010.80 1010.54 1010.26 1010.00 1009.76 1009.55 1009.37 1009.21 1009.06 1008.89 1008.68 1008.43 1008.14 1007.81 1007.47 1007.14 1006.85 1006.63 1006.48 1006.42 1006.44 1006.52 1006.64 1006.79 1006.93 1007.07 1007.20 1007.32
1010.96 1011.03 1011.04 1011.00 1010.93 1010.86 1010.80 1010.76 1010.75 1010.75 1010.75 1010.73 1010.67 1010.56 1010.40 1010.20 1009.97 1009.73 1009.51 1009.32 1009.15 1009.01 1008.89 1008.75 1008.59 1008.37 1008.10 1007.78 1007.42 1007.05 1006.70 1006.39 1006.15 1006.00 1005.93 1005.93 1006.00 1006.10 1006.22 1006.33 1006.42 1006.49 1006.56
1010.79 1010.82 1010.77 1010.68 1010.56 1010.43 1010.32 1010.23 1010.16 1010.12 1010.08 1010.03 1009.96 1009.84 1009.70 1009.53 1009.35 1009.17 1009.01 1008.89 1008.79 1008.70 1008.62 1008.51 1008.35 1008.13 1007.84 1007.50 1007.12 1006.72 1006.34 1006.02 1005.77 1005.60 1005.51 1005.50 1005.54 1005.60 1005.67 1005.71 1005.73 1005.73 1005.71
1010.75 1010.71 1010.61 1010.45 1010.25 1010.06 1009.88 1009.72 1009.59 1009.48 1009.39 1009.30 1009.19 1009.07 1008.94 1008.81 1008.68 1008.58 1008.50 1008.45 1008.43 1008.42 1008.38 1008.30 1008.16 1007.95 1007.65 1007.29 1006.89 1006.47 1006.08 1005.74 1005.47 1005.29 1005.19 1005.16 1005.16 1005.17 1005.17 1005.13 1005.06 1004.97 1004.85
1010.81 1010.71 1010.53 1010.30 1010.04 1009.77 1009.52 1009.28 1009.07 1008.89 1008.72 1008.57 1008.43 1008.29 1008.16 1008.06 1007.99 1007.96 1007.97 1008.01 1008.07 1008.12 1008.15 1008.11 1008.00 1007.79 1007.49 1007.11 1006.70 1006.27 1005.86 1005.52 1005.24 1005.05 1004.93 1004.87 1004.84 1004.80 1004.72 1004.61 1004.45 1004.25 1004.05
1010.93 1010.77 1010.53 1010.25 1009.93 1009.60 1009.27 1008.95 1008.66 1008.39 1008.14 1007.92 1007.72 1007.55 1007.41 1007.33 1007.30 1007.33 1007.41 1007.54 1007.68 1007.80 1007.88 1007.89 1007.80 1007.60 1007.30 1006.92 1006.50 1006.06 1005.65 1005.29 1005.02 1004.82 1004.69 1004.60 1004.53 1004.45 1004.32 1004.14 1003.90 1003.63 1003.34
1011.08 1010.87 1010.60 1010.28 1009.92 1009.55 1009.16 1008.78 1008.41 1008.05 1007.72 1007.41 1007.14 1006.92 1006.76 1006.67 1006.66 1006.73 1006.87 1007.05 1007.26 1007.44 1007.56 1007.60 1007.53 1007.35 1007.05 1006.67 1006.24 1005.80 1005.38 1005.03 1004.74 1004.54 1004.40 1004.30 1004.21 1004.10 1003.94 1003.71 1003.43 1003.11 1002.78
1011.23 1011.01 1010.73 1010.40 1010.03 1009.64 1009.22 1008.79 1008.36 1007.93 1007.51 1007.12 1006.77 1006.49 1006.28 1006.17 1006.15 1006.23 1006.39 1006.61 1006.84 1007.06 1007.21 1007.27 1007.21 1007.03 1006.73 1006.35 1005.91 1005.47 1005.04 1004.68 1004.40 1004.19 1004.04 1003.94 1003.84 1003.72 1003.56 1003.33 1003.04 1002.71 1002.37
1011.37 1011.17 1010.92 1010.61 1010.26 1009.87 1009.45 1009.00 1008.53 1008.04 1007.56 1007.10 1006.68 1006.32 1006.05 1005.89 1005.84 1005.90 1006.05 1006.27 1006.50 1006.72 1006.88 1006.93 1006.87 1006.69 1006.39 1005.99 1005.55 1005.09 1004.67 1004.30 1004.00 1003.79 1003.64 1003.53 1003.44 1003.33 1003.18 1002.98 1002.72 1002.43 1002.12
1011.52 1011.36 1011.14 1010.89 1010.58 1010.24 1009.84 1009.39 1008.91 1008.40 1007.87 1007.35 1006.87 1006.46 1006.13 1005.91 1005.81 1005.83 1005.94 1006.12 1006.33 1006.52 1006.65 1006.69 1006.61 1006.41 1006.10 1005.69 1005.24 1004.77 1004.33 1003.95 1003.64 1003.41 1003.25 1003.14 1003.06 1002.97 1002.85 1002.68 1002.48 1002.25 1002.01
1011.68 1011.56 1011.41 1011.22 1010.98 1010.69 1010.34 1009.93 1009.47 1008.96 1008.42 1007.88 1007.36 1006.90 1006.52 1006.25 1006.09 1006.05 1006.10 1006.23 1006.39 1006.53 1006.62 1006.63 1006.52 1006.30 1005.97 1005.55 1005.08 1004.60 1004.14 1003.73 1003.40 1003.15 1002.97 1002.84 1002.75 1002.67 1002.58 1002.46 1002.32 1002.16 1002.00
1011.84 1011.78 1011.69 1011.57 1011.40 1011.18 1010.89 1010.54 1010.13 1009.65 1009.13 1008.60 1008.07 1007.59 1007.19 1006.87 1006.67 1006.57 1006.57 1006.63 1006.72 1006.81 1006.84 1006.80 1006.66 1006.41 1006.06 1005.63 1005.15 1004.65 1004.17 1003.74 1003.37 1003.08 1002.86 1002.70 1002.58 1002.49 1002.40 1002.31 1002.21 1002.12 1002.04
1012.01 1011.99 1011.95 1011.89 1011.78 1011.63 1011.42 1011.14 1010.79 1010.38 1009.92 1009.42 1008.92 1008.46 1008.05 1007.72 1007.48 1007.34 1007.28 1007.28 1007.30 1007.33 1007.31 1007.22 1007.04 1006.77 1006.41 1005.96 1005.47 1004.96 1004.46 1004.00 1003.59 1003.25 1002.97 1002.75 1002.58 1002.44 1002.33 1002.22 1002.14 1002.08 1002.04
1012.14 1012.15 1012.14 1012.12 1012.08 1011.99 1011.85 1011.65 1011.37 1011.04 1010.65 1010.23 1009.79 1009.37 1008.99 1008.66 1008.41 1008.24 1008.13 1008.07 1008.04 1008.01 1007.93 1007.80 1007.60 1007.30 1006.93 1006.49 1006.00 1005.48 1004.97 1004.48 1004.03 1003.63 1003.28 1002.98 1002.72 1002.51 1002.33 1002.17 1002.06 1001.99 1001.96
1012.21 1012.23 1012.24 1012.24 1012.23 1012.19 1012.11 1011.98 1011.79 1011.54 1011.24 1010.91 1010.55 1010.19 1009.85 1009.56 1009.31 1009.12 1008.98 1008.87 1008.79 1008.70 1008.58 1008.41 1008.18 1007.88 1007.51 1007.08 1006.60 1006.10 1005.58 1005.08 1004.59 1004.13 1003.71 1003.32 1002.96 1002.64 1002.36 1002.12 1001.93 1001.80 1001.74
1012.20 1012.20 1012.20 1012.21 1012.22 1012.21 1012.17 1012.10 1011.99 1011.82 1011.61 1011.36 1011.09 1010.80 1010.52 1010.26 1010.02 1009.82 1009.66 1009.51 1009.38 1009.24 1009.08 1008.88 1008.64 1008.34 1007.98 1007.57 1007.12 1006.64 1006.14 1005.64 1005.13 1004.63 1004.14 1003.67 1003.21 1002.78 1002.38 1002.02 1001.72 1001.50 1001.36
1012.07 1012.06 1012.05 1012.04 1012.05 1012.06 1012.05 1012.02 1011.97 1011.87 1011.73 1011.56 1011.36 1011.14 1010.90 1010.67 1010.45 1010.24 1010.04 1009.86 1009.68 1009.50 1009.30 1009.07 1008.81 1008.51 1008.18 1007.80 1007.40 1006.96 1006.50 1006.02 1005.52 1005.01 1004.48 1003.94 1003.40 1002.87 1002.35 1001.87 1001.45 1001.10 1000.85
1011.86 1011.82 1011.79 1011.78 1011.78 1011.78 1011.79 1011.79 1011.77 1011.72 1011.64 1011.52 1011.36 1011.18 1010.98 1010.76 1010.54 1010.31 1010.08 1009.86 1009.63 1009.40 1009.15 1008.90 1008.63 1008.34 1008.03 1007.70 1007.34 1006.97 1006.56 1006.13 1005.67 1005.18 1004.64 1004.08 1003.49 1002.88 1002.27 1001.68 1001.14 1000.67 1000.29
1011.58 1011.53 1011.49 1011.46 1011.45 1011.45 1011.46 1011.47 1011.46 1011.44 1011.38 1011.29 1011.16 1010.99 1010.80 1010.57 1010.33 1010.07 1009.80 1009.52 1009.24 1008.95 1008.67 1008.38 1008.10 1007.82 1007.53 1007.24 1006.95 1006.64 1006.31 1005.95 1005.55 1005.11 1004.61 1004.06 1003.46 1002.82 1002.15 1001.49 1000.85 1000.27 999.77
Thickness
5699 5695 5690 5686 5682 5678 5674 5670 5667 5664 5661 5658 5656 5655 5653 5652 5651 5649 5648 5648 5647 5648 5649 5651 5654 5657 5659 5662 5665 5667 5670 5672 5676 5683 5690 5696 5701 5706 5711 5715 5719 5722 5725
5701 5696 5691 5687 5683 5678 5675 5671 5668 5664 5661 5659 5656 5654 5652 5650 5648 5646 5645 5644 5643 5643 5644 5646 5648 5651 5652 5655 5657 5660 5663 5666 5670 5674 5680 5685 5691 5697 5702 5706 5710 5715 5718
5702 5696 5692 5687 5683 5679 5675 5672 5669 5665 5662 5659 5656 5653 5651 5649 5647 5645 5642 5641 5640 5640 5640 5641 5642 5644 5645 5648 5651 5653 5656 5660 5664 5667 5671 5677 5682 5688 5692 5697 5702 5707 5711
5702 5697 5692 5688 5684 5680 5677 5673 5669 5666 5662 5659 5657 5654 5651 5648 5646 5643 5641 5639 5638 5637 5637 5637 5638 5639 5640 5642 5644 5647 5650 5653 5656 5660 5664 5668 5673 5679 5683 5687 5691 5697 5701
5702 5697 5693 5690 5686 5681 5677 5674 5670 5666 5663 5660 5657 5654 5651 5648 5646 5643 5640 5638 5636 5635 5635 5635 5636 5637 5639 5639 5640 5642 5644 5646 5649 5653 5656 5660 5665 5669 5674 5680 5683 5688 5692
5702 5698 5694 5690 5685 5681 5678 5674 5670 5666 5663 5660 5657 5654 5651 5650 5648 5645 5641 5637 5635 5633 5633 5634 5634 5635 5636 5637 5638 5640 5641 5642 5644 5647 5651 5654 5659 5663 5667 5671 5674 5678 5682
5703 5699 5695 5690 5686 5682 5679 5674 5670 5667 5664 5660 5657 5654 5652 5650 5649 5646 5644 5639 5636 5633 5632 5632 5633 5635 5634 5633 5634 5636 5637 5640 5643 5645 5647 5651 5655 5659 5661 5664 5668 5671 5676
5703 5699 5695 5691 5686 5683 5678 5674 5671 5668 5664 5661 5658 5656 5653 5652 5650 5648 5645 5640 5637 5635 5633 5632 5631 5631 5631 5631 5630 5631 5633 5636 5639 5643 5645 5649 5652 5654 5657 5660 5662 5664 5668
5702 5699 5696 5692 5687 5683 5678 5675 5672 5668 5665 5662 5660 5657 5654 5652 5652 5649 5646 5640 5637 5635 5634 5633 5631 5630 5630 5630 5628 5629 5630 5633 5637 5640 5643 5646 5648 5651 5652 5653 5655 5656 5659
5702 5700 5697 5693 5688 5683 5680 5677 5674 5670 5667 5664 5661 5659 5656 5654 5653 5650 5647 5640 5636 5635 5633 5632 5631 5630 5629 5629 5627 5627 5627 5630 5633 5636 5639 5642 5645 5647 5649 5650 5651 5652 5654
5702 5699 5696 5692 5688 5684 5680 5677 5674 5670 5667 5664 5661 5660 5658 5656 5654 5652 5648 5642 5638 5635 5632 5631 5630 5630 5629 5628 5628 5627 5627 5629 5631 5633 5635 5638 5641 5643 5644 5646 5648 5650 5651
5699 5696 5692 5689 5686 5684 5678 5675 5672 5668 5664 5662 5660 5658 5658 5657 5655 5653 5650 5646 5641 5635 5633 5631 5630 5630 5629 5629 5629 5629 5629 5629 5629 5631 5633 5635 5637 5639 5641 5642 5644 5646 5648
5694 5690 5687 5685 5681 5679 5675 5672 5669 5666 5662 5660 5658 5656 5657 5656 5654 5653 5650 5647 5643 5638 5635 5633 5631 5630 5629 5629 5629 5629 5629 5628 5628 5629 5630 5632 5634 5636 5637 5638 5639 5641 5642
5688 5684 5682 5679 5676 5674 5671 5669 5665 5663 5660 5659 5657 5656 5655 5654 5652 5651 5648 5645 5642 5638 5634 5632 5631 5630 5628 5628 5629 5628 5628 5627 5627 5628 5628 5629 5631 5632 5632 5633 5634 5635 5636
5681 5678 5675 5673 5670 5668 5666 5664 5662 5661 5659 5657 5656 5655 5652 5651 5654 5652 5647 5644 5639 5636 5632 5629 5627 5626 5626 5626 5627 5627 5627 5626 5626 5626 5626 5627 5627 5628 5628 5628 5629 5630 5631
5673 5669 5667 5664 5662 5660 5658 5658 5658 5657 5657 5656 5654 5653 5652 5652 5652 5651 5647 5643 5639 5634 5628 5625 5624 5623 5622 5623 5623 5624 5625 5625 5625 5625 5624 5624 5624 5624 5624 5624 5624 5625 5626
5664 5661 5658 5655 5654 5652 5651 5649 5648 5649 5650 5650 5648 5647 5647 5647 5647 5645 5642 5638 5633 5629 5623 5621 5620 5619 5620 5620 5621 5621 5622 5623 5623 5622 5622 5622 5622 5621 5621 5621 5621 5621 5622
5655 5652 5649 5645 5643 5642 5640 5639 5638 5637 5637 5637 5638 5638 5639 5639 5638 5636 5633 5629 5624 5620 5617 5615 5615 5616 5616 5617 5618 5618 5619 5620 5619 5619 5619 5619 5619 5618 5618 5618 5618 5618 5619
5645 5641 5638 5635 5633 5631 5630 5629 5628 5627 5626 5625 5625 5626 5627 5626 5626 5623 5621 5616 5613 5611 5609 5609 5609 5610 5611 5612 5613 5614 5615 5615 5616 5616 5616 5616 5616 5615 5615 5615 5615 5615 5615
5633 5634 5629 5625 5622 5620 5618 5616 5615 5613 5613 5612 5612 5611 5612 5613 5611 5608 5606 5604 5602 5600 5600 5600 5600 5600 5602 5603 5605 5607 5608 5609 5610 5610 5611 5611 5612 5612 5612 5612 5612 5612 5612
5621 5619 5619 5613 5610 5607 5605 5603 5601 5600 5599 5598 5597 5598 5599 5597 5595 5593 5591 5590 5589 5588 5588 5588 5588 5589 5590 5591 5593 5595 5597 5598 5599 5600 5603 5605 5607 5607 5608 5609 5609 5609 5609
5609 5606 5603 5600 5597 5595 5592 5590 5588 5587 5585 5584 5583 5584 5584 5583 5581 5579 5578 5576 5575 5575 5575 5575 5574 5574 5575 5576 5577 5579 5580 5581 5583 5586 5590 5595 5598 5601 5603 5604 5605 5605 5605
5597 5594 5590 5587 5585 5584 5580 5578 5576 5575 5574 5572 5572 5571 5570 5568 5567 5566 5565 5564 5563 5562 5562 5562 5562 5561 5561 5561 5561 5561 5561 5562 5564 5567 5573 5579 5586 5591 5594 5597 5598 5600 5600
5584 5581 5578 5575 5573 5570 5568 5566 5564 5564 5563 5561 5560 5559 5557 5556 5554 5553 5552 5551 5550 5550 5549 5548 5547 5547 5546 5546 5546 5545 5546 5547 5549 5553 5557 5562 5568 5575 5582 5586 5590 5593 5595
5571 5568 5566 5563 5560 5558 5556 5555 5553 5552 5551 5550 5548 5547 5545 5544 5543 5542 5540 5539 5537 5536 5535 5534 5533 5532 5531 5531 5530 5530 5530 5532 5533 5536 5541 5545 5551 5557 5564 5571 5577 5582 5586
5559 5556 5554 5551 5549 5547 5545 5543 5542 5540 5539 5538 5536 5534 5533 5531 5530 5528 5527 5525 5523 5522 5521 5519 5518 5516 5515 5515 5514 5514 5514 5515 5516 5519 5522 5527 5532 5538 5543 5551 5559 5566 5573